Location: Mountain View
(37.3861°N, 122.0839°W)
Time: 04:46:07
(UTC-07:00)

ISS - Visible Passes

Search period start: 28 September 2021 00:00
Search period end: 08 October 2021 00:00
Orbit: 417 x 422 km, 51.6° (Epoch: 28 September)

Date Brightness Start Highest point End Pass type
(mag) Time Alt. Az. Time Alt. Az. Time Alt. Az.
29 Sep -1.3 20:40:03 10° NNW 20:41:16 14° N 20:41:16 14° N visible
30 Sep -1.3 19:53:05 10° N 19:54:25 12° NNE 19:55:37 10° NE visible
30 Sep -0.3 21:28:32 10° NW 21:28:34 10° NW 21:28:34 10° NW visible
01 Oct -1.8 20:41:07 10° NNW 20:42:54 23° N 20:42:54 23° N visible
02 Oct -2.1 19:53:44 10° NNW 19:56:24 21° NNE 19:57:14 19° NE visible
02 Oct -0.2 21:30:06 10° WNW 21:30:11 11° WNW 21:30:11 11° WNW visible
03 Oct -2.5 20:42:18 10° NW 20:44:33 39° NW 20:44:33 39° NW visible
04 Oct -3.5 19:54:34 10° NW 19:57:51 52° NE 19:58:56 35° E visible
05 Oct -2.7 19:06:52 10° NNW 19:09:55 31° NNE 19:12:58 10° E visible
05 Oct -1.7 20:43:47 10° WNW 20:46:21 25° WSW 20:46:21 25° WSW visible
06 Oct -2.9 19:55:32 10° WNW 19:58:46 46° SW 20:00:55 19° SSE visible
07 Oct -3.7 19:07:27 10° NW 19:10:49 89° WSW 19:14:10 10° SE visible
